Location: Pasadena-CA
(34.1440°N, 118.1100°W)
Time: 04:56:21
(UTC-07:00)

NOAA 19 - Pass Details

Date: 28 June 2022
Orbit: 840 x 861 km, 99.1° (Epoch: 15 August)

Event Time Altitude Azimuth Distance (km) Brightness Sun altitude
Rises 21:18:31 0° 202° (SSW) 3,419 8.2 -12.8°
Reaches altitude 10° 21:21:32 10° 219° (SW) 2,485 7.6 -13.3°
Maximum altitude 21:25:28 20° 265° (W) 1,880 7.6 -13.9°
Drops below altitude 10° 21:29:26 10° 311° (NW) 2,488 9.1 -14.5°
Sets 21:32:28 0° 328° (NNW) 3,425 9.9 -15.0°
